Weather History for KMNH - December, 2013

Change the Weather History Date:

Saturday, December 28, 2013

  Actual Average (KAPA) Record (KAPA)
Temperature  
Mean Temperature 35 °F -  
Max Temperature 51 °F 42 °F 60 °F (2002)
Min Temperature 17 °F 20 °F 0 °F (2007)
Degree Days  
Heating Degree Days 30    
Moisture  
Dew Point 17 °F    
Average Humidity 54    
Maximum Humidity 100    
Minimum Humidity 22    
Precipitation  
Precipitation 0.02 in - - ()
Sea Level Pressure  
Sea Level Pressure 29.98 in    
Wind  
Wind Speed 10 mph (NW)    
Max Wind Speed 21 mph    
Max Gust Speed 32 mph    
Visibility 8 miles    
Events Snow    
Averages and records for this station are not official NWS values.
T = Trace of Precipitation, MM = Missing Value Source: NWS Daily Summary

Daily Weather History Graph

Daily Weather History Graph

Search for Another Location

Airport or City:

Trip Planner

Search our weather history database for the weather conditions in past years. The results will help you decide how hot, cold, wet, or windy it might be!

Date:

Astronomy

Dec. 28, 2013 Rise Set
Actual Time 7:17 AM MST 4:43 PM MST
Civil Twilight 6:47 AM MST 5:13 PM MST
Nautical Twilight 6:13 AM MST 5:47 PM MST
Astronomical Twilight 5:41 AM MST 6:19 PM MST
Moon 2:57 AM MST (12/28) 1:35 PM MST (12/28)
Length of Visible Light 10h 26m
Length of Day
9h 26m
Waning Crescent, 18% of the Moon is Illuminated
Dec 28
Waning Crescent
Jan 1
New
Jan 7
First Quarter
Jan 15
Full
Jan 23
Last Quarter

Hourly Weather History & Observations

Time (MST) Temp. Windchill Dew Point Humidity Pressure Visibility Wind Dir Wind Speed Gust Speed Precip Events Conditions
12:12 AM 32.0 °F 24.2 °F 12.2 °F 44% 30.07 in 10.0 mi South 9.2 mph - N/A   Clear
12:32 AM 32.0 °F 22.5 °F 14.0 °F 48% 30.05 in 10.0 mi South 12.7 mph - N/A   Clear
12:52 AM 32.0 °F 23.6 °F 12.2 °F 44% 30.05 in 10.0 mi South 10.4 mph - N/A   Clear
1:12 AM 32.0 °F 25.6 °F 14.0 °F 48% 30.04 in 10.0 mi SSW 6.9 mph - N/A   Clear
1:32 AM 30.2 °F 21.9 °F 14.0 °F 51% 30.03 in 10.0 mi SSW 9.2 mph - N/A   Clear
1:51 AM 32.0 °F 24.8 °F 14.0 °F 48% 30.03 in 10.0 mi SSW 8.1 mph - N/A   Clear
2:12 AM 32.0 °F 24.8 °F 14.0 °F 48% 30.02 in 10.0 mi SSW 8.1 mph - N/A   Clear
2:32 AM 32.0 °F 24.8 °F 14.0 °F 48% 30.01 in 10.0 mi SSW 8.1 mph - N/A   Clear
2:52 AM 35.6 °F 28.0 °F 14.0 °F 41% 30.00 in 10.0 mi SW 10.4 mph - N/A   Clear
3:12 AM 33.8 °F 27.0 °F 14.0 °F 44% 29.99 in 10.0 mi SSW 8.1 mph - N/A   Clear
3:32 AM 33.8 °F 26.4 °F 15.8 °F 48% 29.99 in 10.0 mi SW 9.2 mph - N/A   Clear
3:52 AM 33.8 °F 26.4 °F 15.8 °F 48% 29.97 in 10.0 mi SW 9.2 mph - N/A   Clear
4:12 AM 32.0 °F 24.2 °F 17.6 °F 55% 29.97 in 10.0 mi WSW 9.2 mph - N/A   Clear
4:31 AM 33.8 °F 26.4 °F 15.8 °F 48% 29.97 in 10.0 mi WSW 9.2 mph - N/A   Clear
4:52 AM 32.0 °F 24.8 °F 15.8 °F 51% 29.97 in 10.0 mi WSW 8.1 mph - N/A   Clear
5:12 AM 33.8 °F 28.6 °F 15.8 °F 48% 29.95 in 10.0 mi WSW 5.8 mph - N/A   Clear
5:32 AM 32.0 °F 24.8 °F 15.8 °F 51% 29.95 in 10.0 mi WSW 8.1 mph - N/A   Clear
5:52 AM 33.8 °F 29.6 °F 14.0 °F 44% 29.95 in 10.0 mi SW 4.6 mph - N/A   Clear
6:12 AM 28.4 °F 20.4 °F 15.8 °F 59% 29.95 in 10.0 mi WSW 8.1 mph - N/A   Clear
6:32 AM 28.4 °F 21.2 °F 15.8 °F 59% 29.95 in 10.0 mi West 6.9 mph - N/A   Clear
6:52 AM 30.2 °F 21.3 °F 15.8 °F 55% 29.94 in 10.0 mi West 10.4 mph - N/A   Clear
7:12 AM 30.2 °F 21.3 °F 14.0 °F 51% 29.94 in 10.0 mi West 10.4 mph - N/A   Clear
7:32 AM 30.2 °F 21.9 °F 15.8 °F 55% 29.94 in 10.0 mi West 9.2 mph - N/A   Clear
7:52 AM 32.0 °F 25.6 °F 15.8 °F 51% 29.94 in 10.0 mi West 6.9 mph - N/A   Clear
8:12 AM 37.4 °F 33.8 °F 17.6 °F 45% 29.94 in 10.0 mi West 4.6 mph - N/A   Clear
8:32 AM 41.0 °F 36.4 °F 15.8 °F 36% 29.94 in 10.0 mi West 6.9 mph - N/A   Clear
8:52 AM 42.8 °F 40.1 °F 17.6 °F 36% 29.94 in 10.0 mi West 4.6 mph - N/A   Clear
9:12 AM 44.6 °F 41.4 °F 17.6 °F 34% 29.94 in 10.0 mi WNW 5.8 mph - N/A   Clear
9:32 AM 46.4 °F 42.4 °F 17.6 °F 32% 29.94 in 10.0 mi WNW 8.1 mph - N/A   Clear
9:52 AM 50.0 °F - 17.6 °F 28% 29.95 in 10.0 mi WNW 9.2 mph - N/A   Clear
10:12 AM 50.0 °F - 15.8 °F 26% 29.94 in 10.0 mi NW 6.9 mph - N/A   Clear
10:32 AM 50.0 °F - 15.8 °F 26% 29.94 in 10.0 mi NW 9.2 mph - N/A   Clear
10:51 AM 51.8 °F - 15.8 °F 24% 29.93 in 10.0 mi NW 11.5 mph - N/A   Clear
11:12 AM 51.8 °F - 15.8 °F 24% 29.92 in 10.0 mi NW 8.1 mph - N/A   Clear
11:32 AM 51.8 °F - 14.0 °F 22% 29.91 in 10.0 mi NNW 10.4 mph - N/A   Clear
11:52 AM 50.0 °F - 15.8 °F 26% 29.91 in 10.0 mi NNW 11.5 mph - N/A   Clear
12:11 PM 50.0 °F - 15.8 °F 26% 29.89 in 10.0 mi NNW 9.2 mph - N/A   Clear
12:32 PM 50.0 °F - 17.6 °F 28% 29.89 in 10.0 mi North 5.8 mph - N/A   Clear
12:52 PM 50.0 °F - 15.8 °F 26% 29.89 in 10.0 mi North 10.4 mph - N/A   Clear
1:12 PM 50.0 °F - 15.8 °F 26% 29.88 in 10.0 mi NNE 10.4 mph - N/A   Clear
1:32 PM 51.8 °F - 14.0 °F 22% 29.87 in 10.0 mi NNE 9.2 mph - N/A   Clear
1:52 PM 50.0 °F - 14.0 °F 24% 29.87 in 10.0 mi North 11.5 mph 16.1 mph N/A   Clear
2:12 PM 51.8 °F - 14.0 °F 22% 29.87 in 10.0 mi North 12.7 mph 17.3 mph N/A   Mostly Cloudy
2:31 PM 42.8 °F 34.5 °F 17.6 °F 36% 29.89 in 10.0 mi NE 18.4 mph 32.2 mph N/A   Overcast
2:52 PM 42.8 °F 34.0 °F 15.8 °F 34% 29.91 in 10.0 mi NE 20.7 mph 31.1 mph N/A   Overcast
3:11 PM 41.0 °F 31.9 °F 14.0 °F 33% 29.92 in 10.0 mi NE 19.6 mph 29.9 mph N/A   Overcast
3:32 PM 37.4 °F 28.5 °F 12.2 °F 36% 29.94 in 10.0 mi NNE 15.0 mph 27.6 mph N/A   Overcast
3:52 PM 35.6 °F 26.2 °F 14.0 °F 41% 29.94 in 10.0 mi NNE 15.0 mph 23.0 mph N/A   Mostly Cloudy
4:12 PM 35.6 °F 27.1 °F 15.8 °F 44% 29.95 in 10.0 mi NNE 12.7 mph - N/A   Mostly Cloudy
4:32 PM 33.8 °F 22.2 °F 17.6 °F 52% 29.97 in 10.0 mi NNE 20.7 mph 27.6 mph N/A   Overcast
4:52 PM 32.0 °F 24.2 °F 17.6 °F 55% 29.99 in 10.0 mi North 9.2 mph - N/A   Mostly Cloudy
5:12 PM 32.0 °F 23.0 °F 19.4 °F 60% 30.00 in 10.0 mi North 11.5 mph - N/A   Overcast
5:31 PM 32.0 °F 20.8 °F 21.2 °F 64% 30.01 in 10.0 mi North 17.3 mph - N/A   Overcast
5:51 PM 30.2 °F 19.8 °F 21.2 °F 69% 30.01 in 10.0 mi North 13.8 mph 24.2 mph N/A   Overcast
6:12 PM 28.4 °F 16.6 °F 21.2 °F 74% 30.03 in 10.0 mi North 16.1 mph 21.9 mph N/A   Overcast
6:32 PM 28.4 °F 17.0 °F 23.0 °F 80% 30.03 in 10.0 mi North 15.0 mph 19.6 mph N/A   Overcast
6:52 PM 26.6 °F 14.3 °F 23.0 °F 86% 30.03 in 10.0 mi North 16.1 mph 20.7 mph N/A   Overcast
7:12 PM 26.6 °F 16.8 °F 23.0 °F 86% 30.04 in 10.0 mi North 10.4 mph 20.7 mph N/A   Overcast
7:32 PM 26.6 °F 14.7 °F 23.0 °F 86% 30.04 in 5.0 mi North 15.0 mph - N/A Snow Light Snow
7:52 PM 24.8 °F 15.3 °F 23.0 °F 93% 30.05 in 4.0 mi North 9.2 mph - N/A Snow Light Snow
8:12 PM 24.8 °F 12.4 °F 21.2 °F 86% 30.05 in 2.5 mi NNE 15.0 mph 21.9 mph N/A Snow Light Snow
8:32 PM 23.0 °F 11.1 °F 21.2 °F 93% 30.06 in 2.5 mi NNE 12.7 mph - N/A Snow Light Snow
8:52 PM 23.0 °F 13.9 °F 21.2 °F 93% 30.06 in 2.5 mi NNE 8.1 mph - N/A Snow Light Snow
9:12 PM 23.0 °F 14.7 °F 21.2 °F 93% 30.07 in 1.2 mi NNE 6.9 mph - 0.01 in Snow Light Snow
9:32 PM 23.0 °F 13.9 °F 21.2 °F 93% 30.07 in 2.0 mi NNE 8.1 mph - 0.01 in Snow Light Snow
9:52 PM 23.0 °F 12.4 °F 21.2 °F 93% 30.07 in 1.8 mi NNE 10.4 mph - 0.01 in Snow Light Snow
10:12 PM 21.2 °F 6.0 °F 19.4 °F 93% 30.08 in 1.2 mi NNE 19.6 mph 25.3 mph N/A Snow Light Snow
10:32 PM 19.4 °F 6.0 °F 19.4 °F 100% 30.10 in 2.0 mi NNE 13.8 mph - 0.01 in Snow Light Snow
10:52 PM 19.4 °F 7.2 °F 17.6 °F 93% 30.11 in 3.0 mi North 11.5 mph 18.4 mph 0.01 in Snow Light Snow
11:12 PM 19.4 °F 7.9 °F 17.6 °F 93% 30.11 in 2.5 mi North 10.4 mph - N/A Snow Light Snow
11:31 PM 19.4 °F 5.0 °F 17.6 °F 93% 30.11 in 1.5 mi North 16.1 mph 26.5 mph N/A Snow Light Snow
11:52 PM 17.6 °F 3.2 °F 15.8 °F 93% 30.12 in 2.0 mi NNW 15.0 mph 20.7 mph N/A Snow Light Snow